Location: McDonald Observatory
(30.6717°N, 104.0221°W)
Time: 13:09:49
(UTC-06:00)

Daily predictions for brighter satellites

Satellite Brightness Start Highest point End
(mag) Time Altitude Azimuth Time Altitude Azimuth Time Altitude Azimuth
OAO 3 Copernicus 4.4 19:08:08 10° WNW 19:13:13 73° NNE 19:18:17 10° E
SL-16 R/B 2.9 19:14:51 10° NNW 19:20:26 62° WSW 19:25:59 10° S
Abrixas rocket 3.5 19:17:56 10° WSW 19:21:06 40° NW 19:24:17 10° NE
FREGAT/IRIS 3.6 19:20:31 10° SE 19:23:11 27° ENE 19:25:52 10° NNE
NOAA 12 4.2 19:21:43 10° SSE 19:26:54 58° ENE 19:32:08 10° N
Tiangong 2 1.2 19:24:11 10° WNW 19:27:15 71° SSW 19:30:17 10° SE
Meteor 1-28 Rocket 4.5 19:24:36 10° N 19:28:16 45° WNW 19:31:55 10° SSW
FENGYUN 3A 4.4 19:23:52 10° SE 19:28:30 30° ENE 19:33:09 10° NNE
Cosmos 1741 Rocket 4.0 19:25:08 10° S 19:30:19 71° ESE 19:35:31 10° NNE
GPS 2-04 Rocket1 3.3 19:28:26 10° W 19:32:36 55° NNW 19:36:30 12° ENE
Genesis I 4.5 19:29:31 10° N 19:32:37 22° NE 19:35:12 12° ESE
Cosmos 2322 Rocket 3.6 19:30:00 10° NW 19:35:14 42° WSW 19:40:30 10° S
Cosmos 1633 3.3 19:32:13 10° SSW 19:35:50 58° W 19:39:28 10° N
Cosmos 1536 Rocket 3.9 19:32:40 10° N 19:37:07 72° W 19:41:34 10° S
Okean 1-7 Rocket 4.3 19:33:22 10° NNE 19:37:25 33° E 19:41:25 10° SE
OAO 3 Rocket 4.1 19:35:43 10° SW 19:40:13 36° SSE 19:43:34 16° E
GEOS 3 Rocket 3.7 19:35:44 10° NE 19:40:55 59° ESE 19:46:08 10° SSW
METEOR-M 4.1 19:40:04 10° SSE 19:45:24 89° ENE 19:50:46 10° NNW
Hubble Space Telescope 1.4 19:41:40 10° WSW 19:45:37 44° SSE 19:48:14 19° ESE
SJ-6B 2.7 19:43:01 10° SSE 19:47:00 68° ENE 19:50:56 10° N
Cosmos 1570 Rocket 4.2 19:48:50 10° N 19:53:55 50° ENE 19:58:58 10° SSE
Cosmos 2322 3.7 19:49:38 10° NNW 19:55:23 84° ENE 20:01:04 10° SSE
CZ-2D R/B 4.4 19:59:21 24° ENE 19:59:21 24° ENE 20:01:59 10° NNE
H-2A R/B 3.2 19:57:59 20° SE 19:59:57 35° ENE 20:03:23 10° N
Meteor 1-19 Rocket 4.3 19:54:17 10° N 20:00:01 83° W 20:05:49 10° S
Intercosmos 24 4.1 19:56:45 10° S 20:00:40 69° E 20:06:09 10° N
Spot 2 Rocket 3.6 19:59:57 10° SSE 20:04:49 50° ENE 20:09:42 10° N
Okean 2 4.1 20:01:39 10° NNE 20:05:24 32° E 20:05:40 32° E
Cosmos 2297 Rocket 3.0 20:03:25 10° SSE 20:08:05 27° ESE 20:08:19 27° E
Helios 1B rocket 2.8 20:04:58 10° NNE 20:08:53 40° E 20:12:47 10° S
Resurs 01 Rocket 1.5 20:06:42 10° SSE 20:11:02 62° ENE 20:15:23 10° N
Cosmos 2237 Rocket 3.8 20:07:40 10° NNE 20:10:07 16° NE 20:10:07 16° NE
DELTA 2 R/B (1) 3.5 20:06:02 10° WNW 20:11:40 88° SSW 20:14:43 28° ESE
Cosmos 2333 4.4 20:06:43 10° N 20:12:17 49° ENE 20:15:47 22° SE
Cosmos 2237 4.1 20:07:23 10° NNW 20:13:07 77° ENE 20:18:48 10° SSE
COSMOS 2428 2.7 20:07:31 10° N 20:13:07 59° ENE 20:17:41 16° SE
USA 229 DEB 4.2 20:07:31 10° NNW 20:14:16 42° NE 20:17:25 28° ESE
USA 229 4.2 20:07:38 10° NNW 20:14:21 42° NE 20:17:28 28° ESE
Cosmos 1238 Rocket 4.5 20:12:00 10° NNW 20:14:33 26° W 20:17:14 10° SSW
Cosmos 1536 4.4 20:12:47 10° SSW 20:16:29 37° W 20:20:12 10° NNW
Meteor 2-4 Rocket 3.7 20:12:16 10° N 20:17:44 81° W 20:23:05 10° S
HJ-1C 3.8 20:15:29 10° S 20:18:49 64° W 20:22:10 10° NNW
Atlas Centaur 2 3.3 20:12:19 10° SW 20:19:01 35° SSE 20:21:05 29° ESE
SL-19 R/B 4.2 20:14:10 10° SSE 20:19:44 76° ENE 20:25:41 10° N
Meteor 1-23 Rocket 4.2 20:15:15 10° N 20:21:03 86° E 20:26:45 10° S
Cosmos 1610 Rocket 4.4 20:15:23 10° S 20:21:36 73° E 20:27:44 10° N
BREEZE-M DEB (TANK) 3.7 20:18:33 10° NNW 20:21:44 36° NE 20:22:41 33° ENE
Delta R/B 4.1 20:09:25 10° W 20:22:37 63° S 20:23:56 42° ESE
Cosmos 2208 Rocket 4.0 20:18:18 10° NNW 20:23:44 89° WSW 20:29:06 10° SSE
Resurs 1-3 3.4 20:19:25 10° SSE 20:23:46 73° ENE 20:28:09 10° N
Cosmos 2360 Rocket 3.3 20:19:20 10° NW 20:24:41 44° WSW 20:30:00 10° S
Cosmos 2219 Rocket 2.6 20:20:01 10° N 20:25:15 39° ENE 20:25:25 39° ENE
CZ-3 Stage 3 4.3 19:28:59 10° SW 20:27:40 53° SSE 20:33:06 31° ESE
Cosmos 2227 Rocket 2.1 20:22:40 10° S 20:28:12 60° ESE 20:31:29 25° NE
OTV 4 2.1 20:31:32 10° W 20:33:37 32° NW 20:33:37 32° NW
Skynet4D Del rocket 3.7 20:30:27 10° WSW 20:35:39 52° S 20:36:27 47° SE
BREEZE-M DEB (TANK) 3.4 20:36:49 10° NW 20:40:36 42° WSW 20:40:36 42° WSW
Cosmos 1486 Rocket 3.8 20:42:55 10° S 20:48:14 79° ESE 20:48:30 76° ENE
ALOS 3.9 20:44:12 10° SSW 20:48:24 34° W 20:52:38 10° NNW
Cosmos 1025 Rocket 4.4 20:47:55 10° NNW 20:51:59 38° W 20:56:03 10° SSW
Cosmos 2333 Rocket 2.7 21:01:45 10° NNW 21:05:58 49° N 21:05:58 49° N
ATLAS CENTAUR R/B 4.4 21:07:19 10° W 21:09:41 15° WNW 21:09:45 15° WNW
CZ-3C R/B 3.6 21:13:35 10° SW 21:14:07 11° SW 21:14:07 11° SW
Nadezhda 3 Rocket 4.0 21:10:16 10° N 21:16:25 75° W 21:16:26 75° W
Cosmos 2341 Rocket 4.2 21:12:02 10° SSW 21:18:20 70° W 21:24:43 10° N
Hubble Space Telescope 3.5 21:22:36 10° W 21:23:37 17° W 21:23:37 17° W
NOSS 0 Rocket 4.5 21:21:33 10° NNW 21:26:11 53° NW 21:26:11 53° NW
ATLAS 3B CENTAUR R/B 4.2 21:16:44 10° WSW 21:43:13 63° SSE 21:44:12 62° SSE
Cosmos 2297 Rocket 4.0 21:46:59 10° SW 21:50:18 26° W 21:50:18 26° W
Cosmos 2237 Rocket 4.3 21:50:06 10° NNW 21:52:00 21° NW 21:52:00 21° NW
Atlas Centaur 2 4.4 22:01:31 10° WSW 22:03:45 21° WSW 22:03:45 21° WSW
